LogDate,NO,NO2,NOX,O3,PM10,PM2.5,SO2,WIND,WINDS,2TEMP
11/1/2014 12:00:00 AM,,,,,,,,247.6293438,3.021666667,18.64
11/1/2014 1:00:00 AM,,,,,,,,78.85378127,3.226666667,18.32
11/1/2014 2:00:00 AM,,,,,,,,111.1791499,1.648333333,18.03333333
11/1/2014 3:00:00 AM,,,,,,,,100.8232575,3.366666667,16.985
11/1/2014 4:00:00 AM,,,,,,,,79.76115151,3.26,16.02666667
11/1/2014 5:00:00 AM,,,,,,,,50.99626647,4.946666667,15.88166667
11/1/2014 6:00:00 AM,,,,,,,,51.00861267,4.898333333,16.70166667
11/1/2014 7:00:00 AM,,,,,,,,39.17757819,6.376666667,18.55666667
11/1/2014 8:00:00 AM,,,,,,,,342.7407374,6.18,20.95666667
11/1/2014 9:00:00 AM,,,,,,,,291.3115515,5.563333333,21.76833333
11/1/2014 10:00:00 AM,,,,,,,,288.3023176,5.46,23.13833333
11/1/2014 11:00:00 AM,,,,,,,,286.50225,6.061666667,24.18333333
11/1/2014 12:00:00 PM,,,,,,,,283.5258313,5.503333333,25.42
11/1/2014 1:00:00 PM,,,,,,,,277.9588455,5.141666667,26.21833333
11/1/2014 2:00:00 PM,,,,,,,,260.3133794,6.608333333,26.90833333
11/1/2014 3:00:00 PM,,,,,,,,267.9144878,6.113333333,27.54333333
11/1/2014 4:00:00 PM,,,,,,,,260.4655119,5.685,26.48333333
11/1/2014 5:00:00 PM,,,,,,,,265.68707,4.773333333,25.30666667
11/1/2014 6:00:00 PM,,,,,,,,291.8707733,3.896666667,24.63
11/1/2014 7:00:00 PM,,,,,,,,299.4708918,5.696666667,23.265
11/1/2014 8:00:00 PM,,,,,,,,311.7767534,4.586666667,21.93333333
11/1/2014 9:00:00 PM,,,,,,,,28.029641,4.368333333,20.77166667
11/1/2014 10:00:00 PM,,,,,,,,335.0522742,3.51,19.84666667
11/1/2014 11:00:00 PM,,,,,,,,308.7260061,4.871666667,19.005
11/2/2014 12:00:00 AM,,,,,,,,288.9108004,4.815,18.11166667
11/2/2014 1:00:00 AM,,,,,,,,310.0057593,4.966666667,16.98666667
11/2/2014 2:00:00 AM,,,,,,,,306.7433658,4.821666667,15.95166667
11/2/2014 3:00:00 AM,,,,,,,,340.4789242,3.096666667,15.25666667
11/2/2014 4:00:00 AM,,,,,,,,312.5118331,2.653333333,15.01666667
11/2/2014 5:00:00 AM,,,,,,,,11.4097074,2.233333333,15.15666667
11/2/2014 6:00:00 AM,,,,,,,,332.6222783,2.888333333,15.67
11/2/2014 7:00:00 AM,,,,,,,,316.0708805,3.52,16.92333333
11/2/2014 8:00:00 AM,,,,,,,,308.2040616,3.08,18.43833333
11/2/2014 9:00:00 AM,,,,,,,,270.8323003,1.575,18.10166667
11/2/2014 10:00:00 AM,,,,,,,,98.72138309,2.198333333,18.425
11/2/2014 11:00:00 AM,,,,,,,,143.7043183,2.12,19.06833333
11/2/2014 12:00:00 PM,,,,,,,,154.0163999,2.59,19.16
11/2/2014 1:00:00 PM,,,,,,,,152.4612151,3.235,20.68
11/2/2014 2:00:00 PM,,,,,,,,141.1043024,4.741666667,20.20333333
11/2/2014 3:00:00 PM,,,,,,,,129.1854822,3.506666667,22.30333333
11/2/2014 4:00:00 PM,,,,,,,,134.5664721,3.231666667,23.24
11/2/2014 5:00:00 PM,,,,,,,,134.0879041,1.756666667,22.74666667
11/2/2014 6:00:00 PM,,,,,,,,116.3003503,1.076666667,20.79
11/2/2014 7:00:00 PM,,,,,,,,122.3194719,1.526666667,19.42666667
11/2/2014 8:00:00 PM,,,,,,,,130.0028864,1.36,19.02833333
11/2/2014 9:00:00 PM,,,,,,,,135.0547083,1.055,18.45
11/2/2014 10:00:00 PM,,,,,,,,182.0080246,1.608333333,17.865
11/2/2014 11:00:00 PM,,,,,,,,164.445248,10.36833333,16.61
11/3/2014 12:00:00 AM,,,,,,,,117.3218601,6.556666667,16.45
11/3/2014 1:00:00 AM,,,,,,,,84.96359326,10.67166667,16.18333333
11/3/2014 2:00:00 AM,,,,,,,,99.44730151,18.05,16.06
11/3/2014 3:00:00 AM,,,,,,,,77.01542148,15.48333333,15.77166667
11/3/2014 4:00:00 AM,,,,,,,,39.57951206,6.825,15.60833333
11/3/2014 5:00:00 AM,,,,,,,,19.92870239,3.431666667,15.61666667
11/3/2014 6:00:00 AM,,,,,,,,62.73646959,3.88,16.18
11/3/2014 7:00:00 AM,,,,,,,,299.3346026,4.466666667,17.60833333
11/3/2014 8:00:00 AM,,,,,,,,284.5462397,4.718333333,19.36166667
11/3/2014 9:00:00 AM,,,,,,,,272.5065241,5.726666667,21.42666667
11/3/2014 10:00:00 AM,,,,,,,,266.5468719,6.355,23.33333333
11/3/2014 11:00:00 AM,,,,,,,,260.1723584,6.571666667,24.17666667
11/3/2014 12:00:00 PM,,,,,,,,260.1932466,7.143333333,25.43666667
11/3/2014 1:00:00 PM,,,,,,,,259.8431469,7.198333333,25.165
11/3/2014 2:00:00 PM,,,,,,,,251.0659971,7.263333333,24.26833333
11/3/2014 3:00:00 PM,,,,,,,,251.9491929,7.513333333,19.91166667
11/3/2014 4:00:00 PM,,,,,,,,229.131598,2.118333333,19.14333333
11/3/2014 5:00:00 PM,,,,,,,,209.9497398,1.993333333,19.52
11/3/2014 6:00:00 PM,,,,,,,,204.642484,2.548333333,18.94166667
11/3/2014 7:00:00 PM,,,,,,,,237.8799129,0.783333333,18.89
11/3/2014 8:00:00 PM,,,,,,,,333.7008539,1.323333333,18.84666667
11/3/2014 9:00:00 PM,,,,,,,,296.2532906,2.615,18.755
11/3/2014 10:00:00 PM,,,,,,,,292.3153664,3.748333333,18.73666667
11/3/2014 11:00:00 PM,,,,,,,,281.4779782,5.108333333,18.42666667
11/4/2014 12:00:00 AM,,,,,,,,284.6620345,4.495,18.08333333
11/4/2014 1:00:00 AM,,,,,,,,288.3896905,4.095,17.78166667
11/4/2014 2:00:00 AM,,,,,,,,288.0395662,4.006666667,17.99333333
11/4/2014 3:00:00 AM,,,,,,,,283.0426822,4.42,17.805
11/4/2014 4:00:00 AM,,,,,,,,281.6855109,4.18,17.76
11/4/2014 5:00:00 AM,,,,,,,,271.4695922,4.49,17.82666667
11/4/2014 6:00:00 AM,,,,,,,,272.8196216,4.5,17.86
11/4/2014 7:00:00 AM,,,,,,,,261.5453655,4.466666667,18.29
11/4/2014 8:00:00 AM,,,,,,,,261.6144236,5.658333333,19.265
11/4/2014 9:00:00 AM,,,,,,,,241.6285523,6.986666667,19.68166667
11/4/2014 10:00:00 AM,,,,,,,,241.71774,6.936666667,19.68333333
11/4/2014 11:00:00 AM,,,,,,,,221.0628744,8.711666667,19.35166667
11/4/2014 12:00:00 PM,,,,,,,,243.7149641,7.505,21.58166667
11/4/2014 1:00:00 PM,,,,,,,,235.8987604,8.725,23.125
11/4/2014 2:00:00 PM,,,,,,,,233.8397645,9.375,24.19666667
11/4/2014 3:00:00 PM,,,,,,,,223.1485106,7.953333333,24.48333333
11/4/2014 4:00:00 PM,,,,,,,,225.8859526,8.985,24.35333333
11/4/2014 5:00:00 PM,,,,,,,,217.088524,7.045,23.75333333
11/4/2014 6:00:00 PM,,,,,,,,207.2248626,5.568333333,22.65166667
11/4/2014 7:00:00 PM,,,,,,,,185.4810486,3.893333333,20.66333333
11/4/2014 8:00:00 PM,,,,,,,,182.8079183,3.488333333,18.18666667
11/4/2014 9:00:00 PM,,,,,,,,185.1525633,2.578333333,16.62833333
11/4/2014 10:00:00 PM,,,,,,,,191.1917445,2.096666667,15.39833333
11/4/2014 11:00:00 PM,,,,,,,,191.3258194,1.978333333,14.35833333
11/5/2014 12:00:00 AM,,,,,,,,187.3528203,2.743333333,13.71833333
11/5/2014 1:00:00 AM,,,,,,,,195.1528282,2.835,13.12666667
11/5/2014 2:00:00 AM,,,,,,,,186.3227817,2.611666667,12.84333333
11/5/2014 3:00:00 AM,,,,,,,,178.3099383,2.471666667,12.645
11/5/2014 4:00:00 AM,,,,,,,,195.9653514,1.875,11.52833333
11/5/2014 5:00:00 AM,,,,,,,,187.9535593,1.643333333,11.21166667
11/5/2014 6:00:00 AM,,,,,,,,183.3355884,1.398333333,13.16166667
11/5/2014 7:00:00 AM,,,,,,,,162.8864006,2.663333333,16.06333333
11/5/2014 8:00:00 AM,,,,,,,,152.6259061,2.656666667,18.4
11/5/2014 9:00:00 AM,,,,,,,,180.741662,2.298333333,19.86333333
11/5/2014 10:00:00 AM,,,,,,,,163.9061988,3.791666667,21.72833333
11/5/2014 11:00:00 AM,,,,,,,,156.0250182,3.668333333,23.695
11/5/2014 12:00:00 PM,,,,,,,,163.2132863,2.75,25.42666667
11/5/2014 1:00:00 PM,,,,,,,,153.6127373,3.028333333,26.11166667
11/5/2014 2:00:00 PM,,,,,,,,157.5302155,2.781666667,27.03666667
11/5/2014 3:00:00 PM,,,,,,,,167.9167199,2.543333333,27.51
11/5/2014 4:00:00 PM,,,,,,,,153.7735129,2.318333333,26.605
11/5/2014 5:00:00 PM,,,,,,,,148.734681,1.818333333,25.75333333
11/5/2014 6:00:00 PM,,,,,,,,147.8136107,1.815,22.85666667
11/5/2014 7:00:00 PM,,,,,,,,142.9577756,1.001666667,20.83833333
11/5/2014 8:00:00 PM,,,,,,,,126.0745851,1.101666667,19.41833333
11/5/2014 9:00:00 PM,,,,,,,,112.324678,2.883333333,18.64833333
11/5/2014 10:00:00 PM,,,,,,,,106.4935963,3.3,17.65833333
11/5/2014 11:00:00 PM,,,,,,,,94.27524394,4.226666667,16.64166667
11/6/2014 12:00:00 AM,,,,,,,,31.50075539,4.861666667,15.555
11/6/2014 1:00:00 AM,,,,,,,,83.73953238,4.593333333,14.495
11/6/2014 2:00:00 AM,,,,,,,,89.25933196,4.696666667,13.905
11/6/2014 3:00:00 AM,,,,,,,,81.15095775,3.671666667,13.42666667
11/6/2014 4:00:00 AM,,,,,,,,6.967084166,3.988333333,12.925
11/6/2014 5:00:00 AM,,,,,,,,87.88124024,3.875,12.74833333
11/6/2014 6:00:00 AM,,,,,,,,16.49681327,4.698333333,14.03833333
11/6/2014 7:00:00 AM,,,,,,,,346.0672501,6.151666667,17.07166667
11/6/2014 8:00:00 AM,,,,,,,,339.8466999,5.57,19.54166667
11/6/2014 9:00:00 AM,,,,,,,,296.6319521,4.688333333,21.81333333
11/6/2014 10:00:00 AM,,,,,,,,269.594571,4.476666667,23.22833333
11/6/2014 11:00:00 AM,,,,,,,,240.8860811,4.355,24.26166667
11/6/2014 12:00:00 PM,,,,,,,,231.9274855,4.156666667,25.435
11/6/2014 1:00:00 PM,,,,,,,,232.7034845,4.168333333,26.39
11/6/2014 2:00:00 PM,,,,,,,,235.4049625,4.041666667,26.66166667
11/6/2014 3:00:00 PM,,,,,,,,233.8599796,5.215,27.03666667
11/6/2014 4:00:00 PM,,,,,,,,234.492518,3.056666667,26.31666667
11/6/2014 5:00:00 PM,,,,,,,,241.3395954,3.485,25.25666667
11/6/2014 6:00:00 PM,,,,,,,,235.5448141,2.636666667,24.13166667
11/6/2014 7:00:00 PM,,,,,,,,241.3325412,3.265,23.03333333
11/6/2014 8:00:00 PM,,,,,,,,241.0833041,3.603333333,22.025
11/6/2014 9:00:00 PM,,,,,,,,243.3793556,4.438333333,21.64666667
11/6/2014 10:00:00 PM,,,,,,,,242.2003371,6.355,20.58666667
11/6/2014 11:00:00 PM,,,,,,,,244.4983931,6.373333333,20.12166667
11/7/2014 12:00:00 AM,,,,,,,,261.9688873,4.281666667,19.21
11/7/2014 1:00:00 AM,,,,,,,,262.5381504,4.206666667,18.185
11/7/2014 2:00:00 AM,,,,,,,,272.9568683,3.486666667,17.495
11/7/2014 3:00:00 AM,,,,,,,,297.5225695,2.456666667,17.19166667
11/7/2014 4:00:00 AM,,,,,,,,297.9380677,2.44,16.44833333
11/7/2014 5:00:00 AM,,,,,,,,280.3041478,1.871666667,15.78833333
11/7/2014 6:00:00 AM,,,,,,,,255.2958603,2.903333333,16.55
11/7/2014 7:00:00 AM,,,,,,,,261.6715942,3.926666667,18.565
11/7/2014 8:00:00 AM,,,,,,,,240.941991,4.933333333,20.75666667
11/7/2014 9:00:00 AM,,,,,,,,222.435014,3.241666667,23.46166667
11/7/2014 10:00:00 AM,,,,,,,,205.3475937,3.47,26.08666667
11/7/2014 11:00:00 AM,,,,,,,,189.7418161,3.583333333,27.16
11/7/2014 12:00:00 PM,,,,,,,,179.5737306,3.091666667,28.77166667
11/7/2014 1:00:00 PM,,,,,,,,178.0282902,3.54,29.53
11/7/2014 2:00:00 PM,,,,,,,,210.1638635,4.136666667,29.96333333
11/7/2014 3:00:00 PM,,,,,,,,172.449942,3.598333333,30.26333333
11/7/2014 4:00:00 PM,,,,,,,,150.7830289,3.111666667,29.72333333
11/7/2014 5:00:00 PM,,,,,,,,151.6485446,1.838333333,28.9
11/7/2014 6:00:00 PM,,,,,,,,231.7501714,1.17,26.14333333
11/7/2014 7:00:00 PM,,,,,,,,248.0248569,3.675,23.97
11/7/2014 8:00:00 PM,,,,,,,,242.0605504,4.823333333,22.945
11/7/2014 9:00:00 PM,,,,,,,,284.8505301,4.826666667,21.955
11/7/2014 10:00:00 PM,,,,,,,,290.480656,4.543333333,19.97833333
11/7/2014 11:00:00 PM,,,,,,,,277.2487038,4.371666667,18.91333333
11/8/2014 12:00:00 AM,,,,,,,,295.5474519,4.015,17.57666667
11/8/2014 1:00:00 AM,,,,,,,,304.5083953,3.743333333,16.59166667
11/8/2014 2:00:00 AM,,,,,,,,293.3257133,4.315,16.01166667
11/8/2014 3:00:00 AM,,,,,,,,289.989754,3.938333333,15.50166667
11/8/2014 4:00:00 AM,,,,,,,,293.1624303,3.39,15.29166667
11/8/2014 5:00:00 AM,,,,,,,,288.3874474,3.56,15.41333333
11/8/2014 6:00:00 AM,,,,,,,,267.4099114,3.703333333,15.99
11/8/2014 7:00:00 AM,,,,,,,,267.5809947,3.96,16.81666667
11/8/2014 8:00:00 AM,,,,,,,,270.5172022,4.565,18.87
11/8/2014 9:00:00 AM,,,,,,,,255.3045772,5.106666667,20.42333333
11/8/2014 10:00:00 AM,,,,,,,,242.9722686,6.376666667,22.67166667
11/8/2014 11:00:00 AM,,,,,,,,239.1202572,6.406666667,24.38
11/8/2014 12:00:00 PM,,,,,,,,231.9583959,6.176666667,26.05833333
11/8/2014 1:00:00 PM,,,,,,,,226.385583,5.41,27.58
11/8/2014 2:00:00 PM,,,,,,,,229.1949656,5.845,27.07833333
11/8/2014 3:00:00 PM,,,,,,,,167.5323191,8.998333333,21.75166667
11/8/2014 4:00:00 PM,,,,,,,,288.0921997,7.425,16.785
11/8/2014 5:00:00 PM,,,,,,,,250.6779066,4.405,17.39666667
11/8/2014 6:00:00 PM,,,,,,,,239.4837597,7.32,19.16833333
11/8/2014 7:00:00 PM,,,,,,,,242.2616342,7.561666667,19.13833333
11/8/2014 8:00:00 PM,,,,,,,,243.7317105,8.196666667,19.415
11/8/2014 9:00:00 PM,,,,,,,,241.2270457,7.468333333,19.055
11/8/2014 10:00:00 PM,,,,,,,,229.8138908,6.498333333,18.41666667
11/8/2014 11:00:00 PM,,,,,,,,226.1147424,4.285,18.03333333
11/9/2014 12:00:00 AM,,,,,,,,241.8674019,4.63,17.32833333
11/9/2014 1:00:00 AM,,,,,,,,231.4877978,4.698333333,17.06833333
11/9/2014 2:00:00 AM,,,,,,,,205.8261084,1.691666667,17.13833333
11/9/2014 3:00:00 AM,,,,,,,,239.9675051,1.865,17.215
11/9/2014 4:00:00 AM,,,,,,,,252.0336292,1.765,17.145
11/9/2014 5:00:00 AM,,,,,,,,241.367998,4.591666667,17.845
11/9/2014 6:00:00 AM,,,,,,,,244.5320509,5.768333333,19.58833333
11/9/2014 7:00:00 AM,,,,,,,,243.3227619,6.265,22.00166667
11/9/2014 8:00:00 AM,,,,,,,,239.083677,5.096666667,24.07
11/9/2014 9:00:00 AM,,,,,,,,239.2397432,6.045,25.72166667
11/9/2014 10:00:00 AM,,,,,,,,237.2960162,7.473333333,26.66
11/9/2014 11:00:00 AM,,,,,,,,229.1465896,6.035,27.81666667
11/9/2014 12:00:00 PM,,,,,,,,234.2461633,7.071666667,28.38333333
11/9/2014 1:00:00 PM,,,,,,,,232.9718681,7.141666667,28.87
11/9/2014 2:00:00 PM,,,,,,,,228.9363141,6.341666667,29.23666667
11/9/2014 3:00:00 PM,,,,,,,,230.6999102,6.568333333,29.27166667
11/9/2014 4:00:00 PM,,,,,,,,235.1774686,7.351666667,28.39
11/9/2014 5:00:00 PM,,,,,,,,233.5945526,7.006666667,28.305
11/9/2014 6:00:00 PM,,,,,,,,229.6163951,5.56,26.87666667
11/9/2014 7:00:00 PM,,,,,,,,141.6588973,4.366666667,23.55166667
11/9/2014 8:00:00 PM,,,,,,,,116.9543375,5.098333333,19.685
11/9/2014 9:00:00 PM,,,,,,,,110.6645581,3.571666667,18.33666667
11/9/2014 10:00:00 PM,,,,,,,,93.71318766,7.943333333,17.65166667
11/9/2014 11:00:00 PM,,,,,,,,80.16267999,6.351666667,17.45333333
11/10/2014 12:00:00 AM,,,,,,,,81.89500194,2.983333333,16.93333333
11/10/2014 1:00:00 AM,,,,,,,,43.22283627,3.875,17.20833333
11/10/2014 2:00:00 AM,,,,,,,,89.01865321,5.161666667,16.96666667
11/10/2014 3:00:00 AM,,,,,,,,133.8227047,2.788333333,17.255
11/10/2014 4:00:00 AM,,,,,,,,116.7201629,2.275,17.02833333
11/10/2014 5:00:00 AM,,,,,,,,101.1934553,3.476666667,16.60333333
11/10/2014 6:00:00 AM,,,,,,,,85.10475987,3.345,18.13
11/10/2014 7:00:00 AM,,,,,,,,328.3709645,5.333333333,20.09666667
11/10/2014 8:00:00 AM,,,,,,,,311.9464762,5.66,22.40833333
11/10/2014 9:00:00 AM,,,,,,,,253.3042507,5.156666667,22.54333333
11/10/2014 10:00:00 AM,,,,,,,,272.8094403,6.223333333,17.78833333
11/10/2014 11:00:00 AM,,,,,,,,269.1212245,3.115,18.90166667
11/10/2014 12:00:00 PM,,,,,,,,261.3978551,3.723333333,20.23666667
11/10/2014 1:00:00 PM,,,,,,,,255.228085,2.193333333,20.77833333
11/10/2014 2:00:00 PM,,,,,,,,228.6551254,1.558333333,20.915
11/10/2014 3:00:00 PM,,,,,,,,149.8751427,1.146666667,21.13333333
11/10/2014 4:00:00 PM,,,,,,,,131.5419303,1.765,20.75
11/10/2014 5:00:00 PM,,,,,,,,123.7869712,8.17,19.63166667
11/10/2014 6:00:00 PM,,,,,,,,95.31392401,8.193333333,18.34166667
11/10/2014 7:00:00 PM,,,,,,,,110.2080771,15.94,17.965
11/10/2014 8:00:00 PM,,,,,,,,85.93998518,5.645,17.64166667
11/10/2014 9:00:00 PM,,,,,,,,87.0966773,4.335,17.31833333
11/10/2014 10:00:00 PM,,,,,,,,44.38110414,5.016666667,16.985
11/10/2014 11:00:00 PM,,,,,,,,69.43253415,4.598333333,17.09333333
11/11/2014 12:00:00 AM,,,,,,,,80.94083308,4.421666667,17.24
11/11/2014 1:00:00 AM,,,,,,,,102.6399262,4.04,17.32166667
11/11/2014 2:00:00 AM,,,,,,,,120.4754676,5.498333333,16.79166667
11/11/2014 3:00:00 AM,,,,,,,,93.45163525,6.045,16.27666667
11/11/2014 4:00:00 AM,,,,,,,,83.06309951,9.376666667,15.91666667
11/11/2014 5:00:00 AM,,,,,,,,91.73743424,5.085,15.86333333
11/11/2014 6:00:00 AM,,,,,,,,72.60582989,8.428333333,15.92166667
11/11/2014 7:00:00 AM,,,,,,,,93.292219,6.865,16.17666667
11/11/2014 8:00:00 AM,,,,,,,,90.77078358,4.078333333,16.59
11/11/2014 9:00:00 AM,,,,,,,,57.39279373,5.116666667,17.06666667
11/11/2014 10:00:00 AM,,,,,,,,107.9847766,10.36833333,16.645
11/11/2014 11:00:00 AM,,,,,,,,137.2443915,7.978333333,16.61333333
11/11/2014 12:00:00 PM,,,,,,,,127.2264,9.845,16.85
11/11/2014 1:00:00 PM,,,,,,,,335.0497724,4.14,17.555
11/11/2014 2:00:00 PM,,,,,,,,28.58860443,4.288333333,18.39333333
11/11/2014 3:00:00 PM,,,,,,,,18.60374712,8.825,18.32166667
11/11/2014 4:00:00 PM,,,,,,,,77.05092617,11.25333333,18.33833333
11/11/2014 5:00:00 PM,,,,,,,,47.70678468,4.138333333,18.39166667
11/11/2014 6:00:00 PM,,,,,,,,98.50106155,10.91,18.05
11/11/2014 7:00:00 PM,,,,,,,,65.43543067,7.646666667,17.64833333
11/11/2014 8:00:00 PM,,,,,,,,3.758786182,4.308333333,17.42666667
11/11/2014 9:00:00 PM,,,,,,,,290.3192606,5.201666667,17.38166667
11/11/2014 10:00:00 PM,,,,,,,,304.3809249,5.943333333,16.92166667
11/11/2014 11:00:00 PM,,,,,,,,299.3691867,5.521666667,16.615
11/12/2014 12:00:00 AM,,,,,,,,293.8085106,4.861666667,16.57666667
11/12/2014 1:00:00 AM,,,,,,,,291.9820877,4.55,16.59833333
11/12/2014 2:00:00 AM,,,,,,,,282.5087372,4.223333333,16.50666667
11/12/2014 3:00:00 AM,,,,,,,,286.0367502,3.67,16.39
11/12/2014 4:00:00 AM,,,,,,,,289.9923054,4.635,16.235
11/12/2014 5:00:00 AM,,,,,,,,181.5918286,10.535,15.95333333
11/12/2014 6:00:00 AM,,,,,,,,348.5891616,9.08,15.805
11/12/2014 7:00:00 AM,,,,,,,,274.9090295,6.953333333,16.09833333
11/12/2014 8:00:00 AM,,,,,,,,136.0565634,9.97,16.08333333
11/12/2014 9:00:00 AM,,,,,,,,305.8224465,7.41,16.175
11/12/2014 10:00:00 AM,,,,,,,,273.1940383,5.111666667,16.94833333
11/12/2014 11:00:00 AM,,,,,,,,260.3424527,5.71,17.77333333
11/12/2014 12:00:00 PM,,,,,,,,258.7863999,5.995,18.205
11/12/2014 1:00:00 PM,,,,,,,,260.5760598,5.456666667,18.765
11/12/2014 2:00:00 PM,,,,,,,,261.0995835,5.266666667,19.52833333
11/12/2014 3:00:00 PM,,,,,,,,253.9959593,5.048333333,19.58
11/12/2014 4:00:00 PM,,,,,,,,246.3930906,5.958333333,19.31333333
11/12/2014 5:00:00 PM,,,,,,,,243.1077367,6.321666667,18.33166667
11/12/2014 6:00:00 PM,,,,,,,,237.8722271,5.395,17.76666667
11/12/2014 7:00:00 PM,,,,,,,,241.657369,4.723333333,17.61833333
11/12/2014 8:00:00 PM,,,,,,,,242.3002501,5.865,17.695
11/12/2014 9:00:00 PM,,,,,,,,238.2815123,4.913333333,17.69666667
11/12/2014 10:00:00 PM,,,,,,,,225.66315,7.368333333,17.40166667
11/12/2014 11:00:00 PM,,,,,,,,137.7022203,11.385,16.92833333
11/13/2014 12:00:00 AM,,,,,,,,241.093951,8.351666667,16.58166667
11/13/2014 1:00:00 AM,,,,,,,,236.4075147,3.506666667,16.35833333
11/13/2014 2:00:00 AM,,,,,,,,241.6956533,4.761666667,16.56
11/13/2014 3:00:00 AM,,,,,,,,234.1247868,5.098333333,16.765
11/13/2014 4:00:00 AM,,,,,,,,238.3598758,3.675,16.59166667
11/13/2014 5:00:00 AM,,,,,,,,239.1435793,5.155,16.83666667
11/13/2014 6:00:00 AM,,,,,,,,236.6290388,5.831666667,17.87166667
11/13/2014 7:00:00 AM,,,,,,,,240.0677571,7.713333333,19.015
11/13/2014 8:00:00 AM,,,,,,,,232.1019613,8.216666667,19.79833333
11/13/2014 9:00:00 AM,,,,,,,,225.8021569,5.611666667,20.96666667
11/13/2014 10:00:00 AM,,,,,,,,226.9094358,5.508333333,21.96166667
11/13/2014 11:00:00 AM,,,,,,,,230.2126125,5.653333333,23.60666667
11/13/2014 12:00:00 PM,,,,,,,,230.0051179,6.256666667,24.89666667
11/13/2014 1:00:00 PM,,,,,,,,226.9459349,5.801666667,26.18833333
11/13/2014 2:00:00 PM,,,,,,,,232.2503381,7.095,26.49666667
11/13/2014 3:00:00 PM,,,,,,,,230.227979,7.236666667,26.67
11/13/2014 4:00:00 PM,,,,,,,,227.7516507,6.525,26.08
11/13/2014 5:00:00 PM,,,,,,,,228.4828676,4.926666667,25.11333333
11/13/2014 6:00:00 PM,,,,,,,,215.542432,3.59,23.43166667
11/13/2014 7:00:00 PM,,,,,,,,238.9657803,2.785,22.28333333
11/13/2014 8:00:00 PM,,,,,,,,232.1090335,2.801666667,22.02833333
11/13/2014 9:00:00 PM,,,,,,,,209.5495522,1.123333333,20.57
11/13/2014 10:00:00 PM,,,,,,,,111.966985,1.586666667,20.07833333
11/13/2014 11:00:00 PM,,,,,,,,113.3776956,1.086666667,18.63333333
11/14/2014 12:00:00 AM,,,,,,,,110.7931868,1.613333333,17.57
11/14/2014 1:00:00 AM,,,,,,,,89.37188647,2.376666667,17.195
11/14/2014 2:00:00 AM,,,,,,,,77.50194421,2.593333333,17.06666667
11/14/2014 3:00:00 AM,,,,,,,,297.2775611,2.403333333,17.105
11/14/2014 4:00:00 AM,,,,,,,,185.8856888,0.573333333,16.30333333
11/14/2014 5:00:00 AM,,,,,,,,294.7741171,0.896666667,15.69166667
11/14/2014 6:00:00 AM,,,,,,,,304.5304763,1.701666667,18.65
11/14/2014 7:00:00 AM,,,,,,,,304.0947106,3.363333333,21.65333333
11/14/2014 8:00:00 AM,,,,,,,,274.3345768,4.181666667,23.97
11/14/2014 9:00:00 AM,,,,,,,,255.4122686,5.628333333,26.27833333
11/14/2014 10:00:00 AM,,,,,,,,249.4510169,6.573333333,27.69333333
11/14/2014 11:00:00 AM,,,,,,,,235.4659127,7.821666667,28.02333333
11/14/2014 12:00:00 PM,,,,,,,,225.8455438,5.128333333,28.93666667
11/14/2014 1:00:00 PM,,,,,,,,219.2041349,4.765,30.54166667
11/14/2014 2:00:00 PM,,,,,,,,223.5799568,4.761666667,30.745
11/14/2014 3:00:00 PM,,,,,,,,226.8480417,4.883333333,30.185
11/14/2014 4:00:00 PM,,,,,,,,237.2500267,4.536666667,29.55166667
11/14/2014 5:00:00 PM,,,,,,,,248.6501073,4.825,29.005
11/14/2014 6:00:00 PM,,,,,,,,269.9983854,4.306666667,25.63
11/14/2014 7:00:00 PM,,,,,,,,269.940641,4.008333333,23.625
11/14/2014 8:00:00 PM,,,,,,,,263.6211782,5.598333333,22.50666667
11/14/2014 9:00:00 PM,,,,,,,,258.9785589,6.775,20.925
11/14/2014 10:00:00 PM,,,,,,,,253.6010058,5.88,20.10833333
11/14/2014 11:00:00 PM,,,,,,,,257.7503864,5.855,20.40333333
11/15/2014 12:00:00 AM,,,,,,,,253.371121,5.906666667,19.825
11/15/2014 1:00:00 AM,,,,,,,,268.9571025,5.491666667,19.205
11/15/2014 2:00:00 AM,,,,,,,,265.0610747,4.851666667,18.29166667
11/15/2014 3:00:00 AM,,,,,,,,268.8763603,4.426666667,18.11833333
11/15/2014 4:00:00 AM,,,,,,,,266.6742575,3.968333333,17.93333333
11/15/2014 5:00:00 AM,,,,,,,,263.7028031,4.655,18.06166667
11/15/2014 6:00:00 AM,,,,,,,,245.4093112,4.841666667,19.65166667
11/15/2014 7:00:00 AM,,,,,,,,245.7430786,6.685,21.74333333
11/15/2014 8:00:00 AM,,,,,,,,210.9570801,8.945,20.44333333
11/15/2014 9:00:00 AM,,,,,,,,155.3778575,11.79833333,15.85666667
11/15/2014 10:00:00 AM,,,,,,,,194.5791414,6.686666667,16.97666667
11/15/2014 11:00:00 AM,,,,,,,,208.4583704,6.518333333,17.615
11/15/2014 12:00:00 PM,,,,,,,,235.6242474,7.826666667,21.24166667
11/15/2014 1:00:00 PM,,,,,,,,234.7982754,7.023333333,20.80166667
11/15/2014 2:00:00 PM,,,,,,,,240.8798885,8.291666667,22.42
11/15/2014 3:00:00 PM,,,,,,,,214.3100794,4.438333333,23.145
11/15/2014 4:00:00 PM,,,,,,,,115.4606556,9.963333333,18.98333333
11/15/2014 5:00:00 PM,,,,,,,,269.1837867,5.451666667,17.60166667
11/15/2014 6:00:00 PM,,,,,,,,248.295856,1.351666667,18.18166667
11/15/2014 7:00:00 PM,,,,,,,,259.4568238,1.41,16.91
11/15/2014 8:00:00 PM,,,,,,,,221.5318094,1.165,16.215
11/15/2014 9:00:00 PM,,,,,,,,217.8338808,1.846666667,15.78166667
11/15/2014 10:00:00 PM,,,,,,,,199.0221803,2.143333333,15.825
11/15/2014 11:00:00 PM,,,,,,,,189.9962974,2.34,13.54166667
11/16/2014 12:00:00 AM,,,,,,,,193.5202795,1.536666667,12.12666667
11/16/2014 1:00:00 AM,,,,,,,,190.6086071,1.568333333,11.06666667
11/16/2014 2:00:00 AM,,,,,,,,192.5566552,1.526666667,10.275
11/16/2014 3:00:00 AM,,,,,,,,196.5043117,1.37,9.723333333
11/16/2014 4:00:00 AM,,,,,,,,184.3629249,1.325,9.165
11/16/2014 5:00:00 AM,,,,,,,,189.0158172,1.185,8.84
11/16/2014 6:00:00 AM,,,,,,,,173.784101,1.343333333,11.145
11/16/2014 7:00:00 AM,,,,,,,,156.5054364,1.71,14.335
11/16/2014 8:00:00 AM,,,,,,,,151.0429762,2.721666667,16.55666667
11/16/2014 9:00:00 AM,,,,,,,,160.5209112,2.406666667,18.555
11/16/2014 10:00:00 AM,,,,,,,,181.2148969,2.353333333,20.65833333
11/16/2014 11:00:00 AM,,,,,,,,202.8034785,3.048333333,22.32833333
11/16/2014 12:00:00 PM,,,,,,,,198.420582,3.268333333,23.295
11/16/2014 1:00:00 PM,,,,,,,,177.5643637,3.508333333,24.55333333
11/16/2014 2:00:00 PM,,,,,,,,186.3334912,4.036666667,25.26666667
11/16/2014 3:00:00 PM,,,,,,,,189.8716055,3.96,25.78833333
11/16/2014 4:00:00 PM,,,,,,,,185.2314787,4.413333333,25.07
11/16/2014 5:00:00 PM,,,,,,,,181.0131319,3.72,23.86
11/16/2014 6:00:00 PM,,,,,,,,181.7575724,2.165,21.74833333
11/16/2014 7:00:00 PM,,,,,,,,174.3350296,2.508333333,19.705
11/16/2014 8:00:00 PM,,,,,,,,204.6593651,1.803333333,17.87166667
11/16/2014 9:00:00 PM,,,,,,,,126.8527036,1.273333333,16.47333333
11/16/2014 10:00:00 PM,,,,,,,,136.8733766,1.331666667,15.57666667
11/16/2014 11:00:00 PM,,,,,,,,68.47096001,1.623333333,14.37666667
11/17/2014 12:00:00 AM,,,,,,,,223.2117896,1.201666667,14.43166667
11/17/2014 1:00:00 AM,,,,,,,,240.0105488,2.561666667,12.99666667
11/17/2014 2:00:00 AM,,,,,,,,255.7404354,1.866666667,13.87833333